When you browse on this site, cookies collect data to enhance your experience and personalize the content and advertising you see.
Visit our Privacy Policy to learn more. By continuing to use the site, you agree to this use of cookies and data.
  • In United Kingdom
  • List of Countries
  • For 7 days
  • Water Temperature
  • Satellite Maps
  • Weather Map
  • Weather Widgets
  • user-avatar
    Login

    Hourly Weather Metairie

    Today, 25 June, Tuesday

    Time Temperature Precipitation Wind Pressure Humidity
    00:00 +28°C° 0 mm 1 mps 761 mmHg 78%
    01:00 +28°C° 0 mm 2 mps 761 mmHg 81%
    02:00 +28°C° 0 mm 2 mps 761 mmHg 84%
    03:00 +28°C° 0 mm 3 mps 761 mmHg 87%
    04:00 +28°C° 0 mm 3 mps 762 mmHg 87%
    05:00 +28°C° 0 mm 3 mps 762 mmHg 86%
    06:00 +28°C° 0 mm 3 mps 763 mmHg 86%
    07:00 +30°C° 0 mm 3 mps 763 mmHg 77%
    08:00 +33°C° 0 mm 3 mps 763 mmHg 68%
    09:00 +35°C° 0 mm 3 mps 763 mmHg 59%
    10:00 +36°C° 0.4 mm 3 mps 763 mmHg 54%
    11:00 +36°C° 0.4 mm 4 mps 764 mmHg 49%
    12:00 +37°C° 0.4 mm 5 mps 764 mmHg 43%
    13:00 +36°C° 1.1 mm 4 mps 764 mmHg 48%
    14:00 +35°C° 1.1 mm 4 mps 763 mmHg 53%
    15:00 +33°C° 1.1 mm 3 mps 763 mmHg 58%
    16:00 +33°C° 0.9 mm 3 mps 763 mmHg 61%
    17:00 +31°C° 0.9 mm 2 mps 763 mmHg 64%
    18:00 +30°C° 0.9 mm 1 mps 763 mmHg 67%
    19:00 +30°C° 0.2 mm 1 mps 763 mmHg 68%
    20:00 +29°C° 0.2 mm 1 mps 763 mmHg 69%
    21:00 +29°C° 0.2 mm 1 mps 764 mmHg 70%
    22:00 +28°C° 0 mm 1 mps 764 mmHg 71%
    23:00 +28°C° 0 mm 1 mps 764 mmHg 72%

    Tomorrow, 26 June, Wednesday

    Time Temperature Precipitation Wind Pressure Humidity
    00:00 +27°C° 0 mm 1 mps 764 mmHg 72%
    01:00 +27°C° 0 mm 1 mps 764 mmHg 73%
    02:00 +27°C° 0 mm 2 mps 764 mmHg 74%
    03:00 +27°C° 0 mm 3 mps 764 mmHg 75%
    04:00 +27°C° 0 mm 2 mps 764 mmHg 75%
    05:00 +27°C° 0 mm 2 mps 764 mmHg 75%
    06:00 +27°C° 0 mm 2 mps 765 mmHg 75%
    07:00 +29°C° 0 mm 2 mps 765 mmHg 72%
    08:00 +30°C° 0 mm 3 mps 765 mmHg 69%
    09:00 +31°C° 0 mm 3 mps 766 mmHg 65%
    10:00 +34°C° 0 mm 3 mps 766 mmHg 59%
    11:00 +35°C° 0 mm 2 mps 766 mmHg 52%
    12:00 +37°C° 0 mm 2 mps 766 mmHg 45%
    13:00 +37°C° 0 mm 2 mps 765 mmHg 43%
    14:00 +38°C° 0 mm 3 mps 765 mmHg 41%
    15:00 +38°C° 0 mm 3 mps 764 mmHg 39%
    16:00 +37°C° 0.1 mm 3 mps 764 mmHg 45%
    17:00 +35°C° 0.1 mm 2 mps 764 mmHg 52%
    18:00 +34°C° 0.1 mm 2 mps 764 mmHg 58%
    19:00 +31°C° 0.4 mm 2 mps 764 mmHg 63%
    20:00 +30°C° 0.4 mm 2 mps 764 mmHg 68%
    21:00 +28°C° 0.4 mm 2 mps 765 mmHg 73%
    22:00 +28°C° 0 mm 2 mps 765 mmHg 73%
    23:00 +28°C° 0 mm 2 mps 765 mmHg 73%

    Day after tomorrow, 27 June, Thursday

    Time Temperature Precipitation Wind Pressure Humidity
    00:00 +27°C° 0 mm 2 mps 765 mmHg 74%
    01:00 +27°C° 0 mm 2 mps 765 mmHg 74%
    02:00 +27°C° 0 mm 2 mps 765 mmHg 75%
    03:00 +27°C° 0 mm 3 mps 765 mmHg 75%
    04:00 +27°C° 0 mm 2 mps 765 mmHg 77%
    05:00 +27°C° 0 mm 2 mps 765 mmHg 78%
    06:00 +27°C° 0 mm 2 mps 765 mmHg 79%
    07:00 +28°C° 0 mm 2 mps 765 mmHg 73%
    08:00 +30°C° 0 mm 3 mps 765 mmHg 66%
    09:00 +33°C° 0 mm 3 mps 765 mmHg 59%
    10:00 +34°C° 0 mm 3 mps 765 mmHg 53%
    11:00 +35°C° 0 mm 3 mps 765 mmHg 47%
    12:00 +37°C° 0 mm 3 mps 765 mmHg 42%
    13:00 +37°C° 0.2 mm 3 mps 764 mmHg 41%
    14:00 +37°C° 0.2 mm 3 mps 764 mmHg 41%
    15:00 +37°C° 0.2 mm 3 mps 763 mmHg 40%
    16:00 +35°C° 1.3 mm 4 mps 763 mmHg 49%
    17:00 +33°C° 1.3 mm 5 mps 763 mmHg 58%
    18:00 +29°C° 1.3 mm 6 mps 763 mmHg 66%
    19:00 +28°C° 1.7 mm 5 mps 764 mmHg 70%
    20:00 +26°C° 1.7 mm 3 mps 764 mmHg 74%
    21:00 +25°C° 1.7 mm 2 mps 765 mmHg 77%
    22:00 +25°C° 0 mm 2 mps 764 mmHg 77%
    23:00 +25°C° 0 mm 1 mps 764 mmHg 76%

    28 June, Friday

    Time Temperature Precipitation Wind Pressure Humidity
    00:00 +26°C° 0 mm 1 mps 764 mmHg 75%
    01:00 +26°C° 0 mm 2 mps 764 mmHg 78%
    02:00 +26°C° 0 mm 2 mps 763 mmHg 81%
    03:00 +26°C° 0 mm 3 mps 763 mmHg 83%
    04:00 +26°C° 0 mm 3 mps 763 mmHg 83%
    05:00 +26°C° 0 mm 3 mps 764 mmHg 83%
    06:00 +26°C° 0 mm 3 mps 764 mmHg 83%
    07:00 +28°C° 0 mm 3 mps 764 mmHg 74%
    08:00 +30°C° 0 mm 3 mps 764 mmHg 65%
    09:00 +33°C° 0 mm 3 mps 764 mmHg 56%
    10:00 +34°C° 0 mm 3 mps 764 mmHg 52%
    11:00 +35°C° 0 mm 3 mps 764 mmHg 47%
    12:00 +36°C° 0 mm 4 mps 764 mmHg 43%
    13:00 +36°C° 0 mm 4 mps 764 mmHg 43%
    14:00 +36°C° 0 mm 4 mps 763 mmHg 43%
    15:00 +36°C° 0 mm 4 mps 763 mmHg 43%
    16:00 +35°C° 0 mm 4 mps 763 mmHg 47%
    17:00 +34°C° 0 mm 5 mps 763 mmHg 52%
    18:00 +33°C° 0 mm 5 mps 762 mmHg 56%
    19:00 +30°C° 0.1 mm 4 mps 763 mmHg 62%
    20:00 +29°C° 0.1 mm 3 mps 763 mmHg 68%
    21:00 +28°C° 0.1 mm 2 mps 763 mmHg 73%
    22:00 +28°C° 0 mm 2 mps 763 mmHg 75%
    23:00 +27°C° 0 mm 2 mps 763 mmHg 76%

    29 June, Saturday

    Time Temperature Precipitation Wind Pressure Humidity
    00:00 +27°C° 0 mm 1 mps 763 mmHg 78%
    01:00 +27°C° 0 mm 2 mps 763 mmHg 79%
    02:00 +27°C° 0 mm 2 mps 763 mmHg 80%
    03:00 +26°C° 0 mm 2 mps 763 mmHg 82%
    04:00 +27°C° 0 mm 2 mps 763 mmHg 82%
    05:00 +27°C° 0 mm 2 mps 763 mmHg 82%
    06:00 +27°C° 0 mm 2 mps 763 mmHg 82%
    07:00 +29°C° 0 mm 2 mps 764 mmHg 73%
    08:00 +31°C° 0 mm 2 mps 764 mmHg 64%
    09:00 +32°C° 0 mm 2 mps 764 mmHg 55%
    10:00 +34°C° 0.1 mm 3 mps 764 mmHg 53%
    11:00 +35°C° 0.1 mm 3 mps 764 mmHg 51%
    12:00 +35°C° 0.1 mm 4 mps 764 mmHg 49%
    13:00 +35°C° 1 mm 4 mps 763 mmHg 52%
    14:00 +35°C° 1 mm 4 mps 763 mmHg 54%
    15:00 +35°C° 1 mm 4 mps 763 mmHg 57%
    16:00 +34°C° 0.9 mm 3 mps 763 mmHg 60%
    17:00 +33°C° 0.9 mm 3 mps 762 mmHg 64%
    18:00 +31°C° 0.9 mm 2 mps 762 mmHg 68%
    19:00 +30°C° 0.2 mm 3 mps 763 mmHg 72%
    20:00 +29°C° 0.2 mm 3 mps 763 mmHg 76%
    21:00 +28°C° 0.2 mm 3 mps 763 mmHg 81%
    22:00 +27°C° 0 mm 3 mps 763 mmHg 82%
    23:00 +27°C° 0 mm 2 mps 763 mmHg 83%

    30 June, Sunday

    Time Temperature Precipitation Wind Pressure Humidity
    00:00 +27°C° 0 mm 2 mps 763 mmHg 84%
    01:00 +27°C° 0 mm 2 mps 763 mmHg 85%
    02:00 +27°C° 0 mm 1 mps 763 mmHg 85%
    03:00 +26°C° 0 mm 1 mps 763 mmHg 86%
    04:00 +27°C° 0 mm 1 mps 763 mmHg 85%
    05:00 +27°C° 0 mm 1 mps 763 mmHg 84%
    06:00 +25°C° 0 mm 0 mps 763 mmHg 83%
    07:00 +27°C° 0 mm 0 mps 764 mmHg 76%
    08:00 +29°C° 0 mm 0 mps 764 mmHg 68%
    09:00 +30°C° 0 mm 0 mps 764 mmHg 60%
    10:00 +34°C° 0 mm 1 mps 764 mmHg 55%
    11:00 +35°C° 0 mm 1 mps 764 mmHg 50%
    12:00 +37°C° 0 mm 2 mps 763 mmHg 45%
    13:00 +36°C° 0 mm 2 mps 763 mmHg 46%
    14:00 +36°C° 0 mm 3 mps 762 mmHg 47%
    15:00 +36°C° 0 mm 3 mps 762 mmHg 48%
    16:00 +35°C° 0.1 mm 3 mps 762 mmHg 53%
    17:00 +34°C° 0.1 mm 3 mps 762 mmHg 58%
    18:00 +33°C° 0.1 mm 3 mps 762 mmHg 64%
    19:00 +31°C° 0 mm 3 mps 762 mmHg 69%
    20:00 +30°C° 0 mm 3 mps 763 mmHg 74%
    21:00 +28°C° 0 mm 4 mps 763 mmHg 79%
    22:00 +28°C° 0 mm 3 mps 763 mmHg 81%
    23:00 +28°C° 0 mm 3 mps 763 mmHg 82%
    Show more